Location: Unspecified
(0.0000°N, 0.0000°E)
Time: 03:09:32
(UTC+00:00)

TBA - TO BE ASSIGNED - Pass Details

Date: 26 April 2026
Orbit: 482 x 484 km, 43.0° (Epoch: 11 May)

Event Time Altitude Azimuth Distance (km) Brightness Sun altitude
Rises 18:54:03 0° 340° (NNW) 2,519 ? -13.7°
Reaches altitude 10° 18:56:42 10° 358° (N) 1,642 ? -14.3°
Maximum altitude 18:59:24 19° 45° (NE) 1,199 ? -15.0°
Enters shadow 18:59:58 18° 57° (ENE) 1,222 ? -15.1°
